Flag for U.S.A. Weather past 2 weeks in Bridgewater, Massachusetts, U.S.A.

Now
48 °F

Mostly cloudy.


Feels Like: 44 °F
Forecast: 34 / 48 °F
Wind: 8 mph from West

Location: Taunton Municipal Airport

Current Time: Mar 31, 2015 at 6:01:06 PM

Latest Report: Mar 31, 2015 at 4:52 PM


Visibility: 10 mi

Pressure: 29.71 "Hg

Humidity: 37%

Dew point: 23 °F

Location of BridgewaterLocation

Historic Weather in Bridgewater — Graph

°F

Bridgewater temperature yesterday

Maximum temperature yesterday: 46 °F (at 4:52 PM)
Minimum temperature yesterday: 29 °F (at 10:52 PM)
Average temperature yesterday: 37 °F

Past Weeks' High & Low Weather Summary

 TemperatureHumidityPressure
High54 °F (Mar 26, 5:52 PM)97% (Mar 17, 9:52 AM)30.41 "Hg (Mar 17, 9:52 AM)
Low13 °F (Mar 20, 5:52 AM)19% (Mar 16, 4:52 PM)29.39 "Hg (Mar 17, 2:52 PM)
Average34 °F62%29.97 "Hg
* Reported Mar 16 4:52 PM — Mar 31 4:52 PM, Bridgewater, Weather by CustomWeather, © 2015

Note: Actual official high and low records may vary slightly from our data, if they occured in-between our weather recording intervals... More about our weather records

Advertising

Bridgewater weather history for previous 24 hours

 ConditionsComfort  
Time TempWeatherWind HumidityBarometerVisibility
4:52 PM
Tue, Mar 31
48 °FMostly cloudy.8 mph37%29.71 "Hg10 mi
3:52 PM48 °FOvercast.9 mph36%29.70 "Hg10 mi
2:52 PM49 °FPartly sunny.10 mph36%29.70 "Hg10 mi
1:52 PM50 °FSunny.10 mph36%29.72 "Hg10 mi
12:52 PM49 °FSunny.13 mph36%29.73 "Hg10 mi
11:52 AM48 °FPassing clouds.14 mph39%29.76 "Hg10 mi
10:52 AM47 °FSunny.10 mph41%29.77 "Hg10 mi
9:52 AM45 °FSunny.14 mph45%29.78 "Hg10 mi
8:52 AM42 °FSunny.12 mph53%29.78 "Hg10 mi
7:52 AM39 °FSunny.8 mph65%29.77 "Hg10 mi
6:52 AM34 °FClear.5 mph79%29.75 "Hg10 mi
5:52 AM35 °FClear.5 mph75%29.73 "Hg10 mi
4:52 AM34 °FClear.5 mph79%29.72 "Hg10 mi
3:52 AM34 °FClear.6 mph76%29.71 "Hg10 mi
2:52 AM35 °FClear.5 mph72%29.72 "Hg10 mi
1:52 AM34 °FClear.3 mph79%29.73 "Hg10 mi
12:52 AM31 °FClear.No wind85%29.75 "Hg10 mi
11:52 PM
Mon, Mar 30
30 °FPassing clouds.3 mph89%29.76 "Hg10 mi
10:52 PM29 °FClear.No wind93%29.77 "Hg10 mi
9:52 PM31 °FClear.3 mph89%29.76 "Hg10 mi
8:52 PM33 °FPassing clouds.No wind88%29.76 "Hg10 mi
7:52 PM36 °FPassing clouds.No wind82%29.74 "Hg10 mi
6:52 PM43 °FOvercast.3 mph68%29.73 "Hg10 mi
Weather by CustomWeather, © 2015

See weather overviewHow to use our weather pages